Joplin, MO

1:22 PM CDT on September 21, 2019 (GMT -0500)
Joplin Regional

Weather History for KJLN - August, 2019

Change the Weather History Date:

Thursday, August 22, 2019

  Actual Average Record
Temperature  
Mean Temperature 76 °F 79 °F  
Max Temperature 82 °F 91 °F 103 °F (1983)
Min Temperature 69 °F 68 °F 53 °F (1949)
Degree Days  
Heating Degree Days 0 0  
Month to date heating degree days 0 0  
Since 1 June heating degree days 1 5  
Since 1 July heating degree days 0 0  
Cooling Degree Days 10 14  
Month to date cooling degree days 317 340  
Year to date cooling degree days 1168 1311  
Since 1 June cooling degree days 1015 1131  
Growing Degree Days 26 (Base 50)    
Moisture  
Dew Point 70 °F    
Average Humidity 87    
Maximum Humidity 100    
Minimum Humidity 69    
Precipitation  
Precipitation 0.58 in 0.11 in 4.28 in (1985)
Month to date precipitation 3.76 2.26  
Year to date precipitation 46.67 29.88  
Sea Level Pressure  
Sea Level Pressure 29.97 in    
Wind  
Wind Speed 6 mph ()    
Max Wind Speed 18 mph    
Max Gust Speed 29 mph    
Visibility 8.9 miles    
Events Rain , Thunderstorm    
T = Trace of Precipitation, MM = Missing Value Source: Averaged Metar Reports

Daily Weather History Graph

Daily Weather History Graph

Search for Another Location

Airport or City:

Astronomy

Aug. 22, 2019 Rise Set
Actual Time 6:40 AM CDT 8:00 PM CDT
Civil Twilight 6:13 AM CDT 8:28 PM CDT
Nautical Twilight 5:40 AM CDT 9:00 PM CDT
Astronomical Twilight 5:06 AM CDT 9:34 PM CDT
Moon No Moon Rise 1:07 PM CDT (8/22)
Length of Visible Light 14h 15m
Length of Day
13h 20m
Waning Gibbous, 59% of the Moon is Illuminated
Aug 22
Waning Gibbous
Aug 23
Last Quarter
Aug 30
New
Sep 5
First Quarter
Sep 13
Full

Hourly Weather History & Observations

Time (CDT) Temp. Heat Index Dew Point Humidity Pressure Visibility Wind Dir Wind Speed Gust Speed Precip Events Conditions
12:02 AM 73.9 °F - 69.1 °F 85% 30.00 in 10.0 mi East 9.2 mph - N/A   Scattered Clouds
12:53 AM 73.9 °F - 68.0 °F 82% 29.95 in 10.0 mi East 9.2 mph - N/A   Partly Cloudy
1:35 AM 73.9 °F - 68.0 °F 82% 30.00 in 10.0 mi NW 18.4 mph 28.8 mph 0.00 in Rain , Thunderstorm Light Rain
1:53 AM 73.0 °F - 69.1 °F 87% 29.97 in 8.0 mi West 11.5 mph 21.9 mph 0.01 in Rain , Thunderstorm Light Rain
2:53 AM 71.1 °F - 70.0 °F 96% 29.97 in 8.0 mi Calm Calm - 0.02 in Rain , Thunderstorm Light Thunderstorms and Rain
3:14 AM 71.1 °F - 70.0 °F 96% 30.02 in 5.0 mi SW 5.8 mph - 0.04 in Rain , Thunderstorm Rain
3:41 AM 71.1 °F - 70.0 °F 96% 30.01 in 6.0 mi South 6.9 mph - 0.10 in Rain , Thunderstorm Thunderstorms and Rain
3:53 AM 71.1 °F - 70.0 °F 96% 29.98 in 6.0 mi SSW 9.2 mph - 0.13 in Rain , Thunderstorm Rain
4:46 AM 70.0 °F - 69.1 °F 97% 30.02 in 5.0 mi South 10.4 mph - 0.11 in Rain Rain
4:53 AM 70.0 °F - 69.1 °F 97% 29.98 in 6.0 mi South 10.4 mph - 0.13 in Rain Rain
5:28 AM 70.0 °F - 68.0 °F 93% 29.99 in 6.0 mi ENE 6.9 mph - 0.09 in Rain , Thunderstorm Thunderstorms and Rain
5:53 AM 70.0 °F - 69.1 °F 97% 29.95 in 8.0 mi Variable 4.6 mph - 0.12 in Rain Light Rain
6:53 AM 69.1 °F - 68.0 °F 96% 29.96 in 5.0 mi SSE 6.9 mph - 0.04 in Rain Rain
7:53 AM 70.0 °F - 68.0 °F 93% 29.96 in 10.0 mi South 10.4 mph - 0.11 in Rain Light Rain
8:53 AM 71.1 °F - 68.0 °F 90% 29.99 in 10.0 mi Variable 4.6 mph - 0.02 in Rain Light Rain
9:53 AM 71.1 °F - 70.0 °F 96% 29.99 in 10.0 mi Calm Calm - 0.00 in Rain Light Rain
10:53 AM 73.0 °F - 70.0 °F 90% 29.97 in 10.0 mi East 5.8 mph - 0.00 in Rain Light Rain
11:11 AM 73.9 °F - 70.0 °F 87% 30.01 in 10.0 mi North 3.5 mph - 0.00 in   Scattered Clouds
11:32 AM 75.0 °F - 70.0 °F 84% 30.02 in 10.0 mi WNW 3.5 mph - 0.00 in   Mostly Cloudy
11:53 AM 75.9 °F - 71.1 °F 85% 29.99 in 10.0 mi Variable 4.6 mph - 0.00 in   Mostly Cloudy
12:10 PM 75.9 °F - 70.0 °F 82% 30.02 in 10.0 mi Variable 3.5 mph - N/A   Mostly Cloudy
12:53 PM 78.1 °F - 70.0 °F 76% 29.97 in 10.0 mi Variable 3.5 mph - N/A   Mostly Cloudy
1:53 PM 81.0 °F 84.9 °F 71.1 °F 72% 29.97 in 10.0 mi Variable 3.5 mph - N/A   Mostly Cloudy
2:00 PM 81.0 °F 84.9 °F 71.1 °F 72% 30.00 in 10.0 mi Variable 3.5 mph - N/A   Mostly Cloudy
2:53 PM 80.1 °F 83.2 °F 70.0 °F 71% 29.96 in 10.0 mi Variable 3.5 mph - N/A   Scattered Clouds
3:53 PM 80.1 °F 83.6 °F 71.1 °F 74% 29.94 in 10.0 mi Variable 4.6 mph - N/A   Clear
4:53 PM 80.1 °F 82.9 °F 69.1 °F 69% 29.94 in 10.0 mi Variable 3.5 mph - N/A   Partly Cloudy
6:53 PM 78.1 °F - 71.1 °F 79% 29.91 in 10.0 mi Calm Calm - N/A   Clear
7:53 PM 75.9 °F - 71.1 °F 85% 29.91 in 10.0 mi Calm Calm - N/A   Clear
8:53 PM 75.9 °F - 71.1 °F 85% 29.92 in 10.0 mi ENE 3.5 mph - N/A   Clear
9:53 PM 75.0 °F - 72.0 °F 90% 29.95 in 10.0 mi Calm Calm - N/A   Partly Cloudy
10:53 PM 75.0 °F - 71.1 °F 87% 29.94 in 10.0 mi East 4.6 mph - N/A   Partly Cloudy
11:53 PM 73.9 °F - 72.0 °F 93% 29.95 in 10.0 mi NE 3.5 mph - N/A   Mostly Cloudy